Location: Newark
(40.9833°N, 0.0333°W)
Time: 20:27:32
(UTC+00:00)

Vanguard 2 Rocket - Pass Details

Date: 03 November 2020
Orbit: 553 x 3326 km, 32.9° (Epoch: 29 November)

Event Time Altitude Azimuth Distance (km) Brightness Sun altitude
Rises 14:42:50 0° 216° (SW) 3,946 11.7 20.1°
Reaches altitude 10° 14:47:31 10° 191° (S) 2,484 10.2 19.4°
Maximum altitude 14:50:04 13° 163° (SSE) 2,031 9.1 19.1°
Drops below altitude 10° 14:52:17 10° 134° (SE) 2,071 8.8 18.8°
Sets 14:55:28 0° 105° (ESE) 2,794 9.1 18.3°
